Wind_Speed
25 19 22 25 28 27 26 27 24 24 22 23 26 21 22 23 22 23 24 25 25 28 29 30 31 32 31 32 33 36 37 39 42 44 44 44 48 48 46 40 42 46 47
28 23 17 20 22 29 30 26 24 26 23 23 25 23 24 23 24 25 27 27 27 30 32 32 32 33 34 34 35 39 41 43 44 47 47 45 43 32 41 35 38 41 34
25 21 18 17 16 23 28 22 23 23 24 21 24 26 24 23 25 27 28 29 31 32 32 34 36 35 36 37 37 41 44 46 47 47 48 44 51 56 34 31 38 42 52
21 19 16 15 16 18 25 23 22 24 24 26 27 27 27 28 30 30 30 31 33 35 36 37 38 37 39 40 42 43 46 49 52 50 60 48 45 31 35 47 49 56 70
22 22 20 19 16 19 17 21 23 22 27 29 30 31 32 32 33 33 33 34 36 38 38 38 40 40 42 42 45 46 48 50 51 55 38 37 51 41 43 54 57 68 68
24 22 25 23 21 19 20 20 22 24 26 28 29 29 32 35 36 36 36 37 38 38 38 40 40 41 44 45 46 46 49 48 52 52 49 46 59 41 47 61 59 62 67
22 22 22 22 23 25 26 28 30 30 31 31 32 33 35 36 38 39 40 41 42 40 40 41 44 47 47 45 46 47 49 50 50 48 53 53 57 45 47 56 63 67 68
28 30 30 28 29 31 32 33 33 33 35 36 38 41 41 42 41 43 44 43 43 43 45 45 48 47 46 46 48 48 49 49 46 52 51 49 49 47 52 54 60 65 65
29 31 34 38 40 42 43 44 42 40 40 42 43 44 43 43 44 45 46 46 46 45 44 46 47 48 47 49 51 49 47 46 46 52 56 56 53 56 55 60 66 67 69
28 31 34 37 39 40 39 43 46 44 44 45 44 44 45 48 49 48 49 50 50 47 48 48 48 48 50 50 48 45 45 48 47 52 52 45 59 61 63 65 66 66 70
35 34 35 39 42 44 46 42 43 45 46 49 49 50 52 51 50 47 46 48 52 54 50 47 46 46 44 44 46 48 50 53 51 53 53 54 59 63 63 66 70 69 73
42 42 41 39 36 36 42 47 50 49 49 51 52 50 51 52 44 43 48 53 52 49 44 42 44 42 45 47 50 52 53 55 57 56 57 59 62 63 65 66 69 69 72
43 46 45 46 46 43 42 47 51 49 51 53 55 52 51 52 45 44 45 48 49 49 48 44 45 50 52 50 53 54 55 56 60 62 66 66 68 63 62 66 69 70 72
48 49 48 49 48 49 45 46 49 49 50 53 52 49 42 46 50 53 53 54 52 53 52 50 51 57 56 57 55 53 58 62 66 68 68 69 71 70 67 68 68 69 69
55 56 56 51 51 51 50 49 49 48 47 48 52 47 42 44 46 49 50 52 51 49 51 54 57 58 58 60 60 62 65 66 69 69 70 66 68 70 72 69 64 66 71
63 61 57 54 53 55 53 49 50 47 45 46 44 43 42 43 44 44 47 50 52 54 54 57 60 61 61 62 63 67 71 73 75 72 67 68 68 71 66 65 65 66 67
68 63 62 59 56 52 50 49 47 44 43 43 41 40 40 43 45 47 48 50 55 60 61 61 63 66 66 68 70 72 76 76 74 72 70 68 70 64 64 64 66 63 67
63 64 60 57 54 52 47 40 39 39 40 40 40 41 44 44 47 49 50 53 57 61 66 69 70 72 74 77 79 81 76 72 73 77 73 71 72 65 54 62 63 63 63
64 62 60 56 53 49 45 38 37 40 42 44 44 47 51 48 49 51 55 59 63 67 69 71 75 78 80 84 76 78 79 80 74 72 63 62 57 54 64 65 66 64 65
62 60 56 55 50 46 48 47 46 47 48 49 48 44 51 55 58 59 63 68 70 71 72 78 79 77 78 79 78 75 77 71 68 83 81 67 66 72 72 69 61 61 64
58 54 53 50 48 48 44 43 46 44 44 48 51 54 56 59 62 67 72 75 77 79 80 81 84 83 84 83 76 71 75 82 78 73 76 72 65 69 60 58 61 63 58
51 49 45 44 47 46 43 42 45 49 52 53 57 59 61 68 70 75 80 84 81 83 85 88 89 88 87 86 83 81 80 79 74 69 73 73 80 74 68 65 66 60 51
45 44 45 44 46 45 47 51 54 57 60 63 66 69 72 79 85 84 83 83 85 89 95 97 93 88 85 82 83 80 66 68 67 69 75 84 74 67 66 65 53 49 44
51 49 48 48 48 52 54 58 61 65 68 70 74 78 85 90 90 90 92 93 96 99 103 95 81 78 74 64 68 62 64 78 77 65 61 63 66 57 51 47 46 42 36
43 45 48 51 54 60 63 69 73 77 80 83 87 91 93 92 94 97 98 101 103 101 90 74 69 65 59 56 60 62 63 64 64 66 62 53 51 47 46 45 42 32 30
48 51 55 57 61 65 69 74 77 84 88 92 93 91 93 97 100 104 105 103 87 72 60 53 50 51 53 60 62 62 62 62 61 58 56 55 54 48 42 39 35 33 29
Wind_Direction
286 284 283 280 275 263 257 268 263 264 261 266 265 260 259 258 253 255 262 267 270 271 272 274 277 280 284 286 288 294 294 297 296 295 303 300 292 299 281 296 295 293 307
291 286 265 264 268 269 262 263 269 266 261 259 260 260 254 253 253 260 266 272 277 277 278 278 278 280 285 289 287 292 294 295 295 294 294 288 300 289 286 270 281 280 311
284 289 268 269 268 267 263 260 261 263 255 245 251 259 263 264 268 271 274 278 281 280 280 281 282 285 286 286 287 288 293 295 294 294 302 302 321 281 256 259 276 300 321
280 283 276 280 274 255 246 248 246 248 249 248 251 257 260 260 262 265 270 277 280 284 284 284 287 287 285 286 286 291 294 297 299 307 311 282 317 318 278 285 295 298 314
280 283 279 269 272 257 251 248 250 247 244 247 251 254 256 256 259 260 264 273 278 282 282 284 282 283 282 285 288 293 296 298 300 297 304 304 297 308 293 279 283 309 307
275 277 280 273 248 243 244 245 249 251 250 249 254 259 261 259 260 262 268 273 279 281 284 283 282 282 282 285 291 294 296 299 297 296 302 296 309 301 304 305 284 304 301
274 272 263 263 265 262 258 256 260 264 267 268 274 277 272 271 271 273 275 277 281 284 286 286 286 286 286 290 292 293 294 294 298 302 305 317 298 298 297 299 296 301 308
269 261 257 256 260 262 263 265 267 269 271 274 274 272 270 272 275 278 279 282 286 288 286 286 287 286 287 290 290 289 290 293 297 297 297 298 305 303 298 298 297 305 306
272 266 267 267 268 269 268 264 264 265 265 267 269 273 278 280 285 285 286 287 285 284 285 284 282 284 287 288 288 289 289 291 291 294 292 293 294 306 301 301 306 305 304
286 282 283 285 286 287 285 282 279 274 273 272 272 273 277 282 282 282 283 281 279 284 286 280 282 282 284 283 285 286 286 285 280 294 300 288 300 304 303 302 301 302 301
292 292 291 293 291 290 289 280 276 276 276 278 277 275 277 278 284 283 279 278 279 284 283 283 283 283 282 284 287 289 289 290 295 295 294 296 297 299 300 302 300 298 299
288 293 293 294 293 295 293 287 285 280 277 277 280 284 278 280 282 278 279 281 283 285 283 283 284 282 287 292 294 291 292 293 295 295 296 295 297 298 302 301 297 297 297
275 283 289 294 292 289 291 291 287 283 282 280 283 286 286 279 278 278 278 279 282 285 287 287 285 285 286 286 291 290 291 295 292 291 293 294 296 296 297 297 296 296 296
284 284 288 292 292 290 289 288 286 280 282 279 283 285 278 274 275 275 279 278 280 280 279 281 283 283 283 286 288 290 291 290 291 293 295 297 296 293 295 296 295 295 291
288 290 293 291 289 293 293 292 286 280 278 279 285 289 275 270 271 273 273 276 281 284 283 285 282 282 285 289 290 288 289 291 295 296 295 297 298 293 294 293 294 291 295
287 291 294 294 293 294 292 289 288 282 276 280 285 288 285 282 279 277 281 285 289 292 291 290 292 295 294 290 290 292 294 295 294 292 292 297 297 294 290 290 288 292 295
285 289 290 292 292 288 288 285 284 287 288 286 284 283 281 282 284 285 287 289 292 293 292 294 295 295 293 292 292 294 293 293 292 291 291 294 295 293 288 286 288 291 294
284 285 289 290 290 289 284 281 280 281 282 282 284 285 284 285 293 297 297 296 295 295 295 294 295 296 296 295 295 297 293 293 294 295 289 295 292 287 289 294 290 291 292
281 283 287 289 286 283 279 276 276 278 278 277 280 285 286 287 283 284 285 286 288 289 291 292 294 294 295 295 293 293 289 293 287 298 296 298 291 276 290 289 288 289 289
281 283 286 286 278 272 272 271 274 275 275 277 281 285 288 282 283 284 287 288 288 290 290 291 292 292 291 289 291 293 291 294 284 281 286 296 272 277 284 284 285 285 288
281 283 287 280 273 274 273 268 270 272 272 275 279 282 284 286 287 289 291 291 289 289 293 294 296 295 294 293 289 288 281 286 288 287 275 287 275 281 282 282 280 282 284
279 283 281 278 276 275 273 277 280 277 278 279 283 284 286 290 290 292 294 298 297 298 297 297 295 294 292 291 289 286 282 283 285 282 273 273 276 278 279 278 281 283 279
279 283 283 280 276 270 271 281 284 285 285 281 281 283 288 294 295 297 296 297 296 295 295 296 295 292 289 284 283 283 282 278 270 263 262 271 272 273 277 280 279 279 280
280 277 276 275 278 282 283 284 285 290 293 293 292 291 291 296 299 298 298 296 296 295 295 295 290 283 281 277 270 275 272 258 260 263 266 271 278 279 280 279 279 276 276
281 279 278 278 279 283 279 282 285 287 290 295 296 297 298 298 297 295 295 295 294 293 293 288 279 272 273 264 260 263 267 267 269 274 277 279 281 286 286 279 275 269 270
283 287 290 290 288 287 288 287 287 288 293 295 296 296 296 294 294 295 295 295 296 294 288 282 276 269 264 265 267 270 272 275 277 281 282 283 288 297 294 274 269 264 271
Height
5834 5837 5837 5836 5837 5837 5836 5837 5836 5835 5834 5834 5834 5834 5834 5834 5834 5833 5833 5832 5832 5832 5831 5831 5829 5826 5825 5823 5820 5818 5814 5811 5808 5805 5802 5799 5796 5789 5784 5785 5782 5780 5776
5827 5828 5830 5830 5831 5831 5831 5830 5829 5828 5828 5828 5828 5828 5828 5829 5828 5827 5827 5826 5825 5824 5823 5822 5821 5818 5816 5814 5811 5808 5804 5802 5798 5793 5790 5788 5786 5780 5774 5770 5767 5760 5756
5825 5825 5823 5824 5825 5825 5826 5825 5823 5822 5822 5822 5822 5822 5822 5823 5822 5821 5820 5819 5817 5816 5815 5813 5811 5810 5807 5805 5803 5799 5795 5791 5787 5785 5778 5774 5769 5757 5759 5757 5757 5752 5747
5820 5819 5818 5817 5818 5819 5819 5818 5817 5817 5817 5816 5816 5816 5817 5817 5816 5814 5812 5811 5809 5808 5806 5804 5802 5801 5798 5795 5793 5790 5786 5780 5776 5774 5764 5745 5762 5756 5746 5747 5747 5744 5739
5814 5812 5811 5810 5812 5812 5812 5812 5812 5812 5812 5811 5810 5810 5810 5810 5809 5807 5805 5804 5802 5800 5798 5796 5792 5790 5788 5787 5784 5781 5776 5772 5765 5758 5751 5756 5751 5746 5750 5747 5735 5735 5733
5808 5808 5807 5806 5806 5806 5806 5806 5805 5805 5804 5803 5802 5802 5801 5800 5800 5798 5797 5795 5794 5792 5789 5788 5786 5783 5781 5778 5775 5771 5766 5762 5756 5749 5747 5747 5742 5741 5738 5734 5721 5726 5724
5803 5802 5801 5800 5799 5799 5799 5798 5798 5798 5797 5795 5794 5793 5792 5791 5790 5788 5787 5785 5783 5781 5779 5776 5774 5771 5769 5766 5763 5759 5755 5751 5746 5743 5741 5733 5734 5731 5732 5728 5720 5716 5707
5798 5795 5793 5791 5791 5790 5789 5787 5787 5787 5785 5784 5784 5782 5782 5781 5779 5777 5776 5775 5773 5771 5768 5766 5763 5759 5757 5755 5752 5748 5745 5741 5737 5733 5728 5728 5726 5721 5716 5713 5709 5702 5694
5787 5786 5784 5783 5783 5782 5780 5777 5776 5775 5774 5772 5772 5772 5771 5770 5769 5767 5766 5764 5761 5759 5758 5754 5751 5750 5746 5744 5741 5738 5734 5730 5726 5721 5717 5715 5710 5705 5701 5696 5690 5686 5681
5783 5781 5779 5777 5775 5774 5773 5771 5767 5766 5764 5762 5762 5761 5760 5758 5756 5755 5754 5751 5749 5748 5747 5743 5741 5738 5735 5732 5729 5726 5722 5717 5716 5712 5707 5698 5696 5692 5687 5682 5677 5672 5666
5775 5774 5771 5769 5766 5764 5763 5762 5760 5758 5756 5753 5751 5750 5749 5746 5744 5743 5740 5737 5736 5734 5732 5730 5728 5726 5724 5721 5718 5715 5712 5708 5704 5700 5695 5690 5685 5680 5675 5671 5664 5657 5652
5766 5764 5762 5760 5758 5754 5751 5749 5747 5746 5745 5743 5740 5739 5737 5734 5732 5730 5727 5723 5722 5721 5719 5718 5716 5714 5711 5708 5706 5703 5700 5696 5692 5688 5682 5677 5672 5667 5662 5656 5648 5642 5636
5758 5754 5752 5749 5744 5742 5740 5735 5731 5731 5730 5729 5728 5728 5726 5722 5721 5719 5715 5712 5711 5709 5708 5706 5703 5701 5698 5695 5692 5690 5686 5682 5676 5670 5666 5662 5657 5652 5646 5638 5632 5626 5623
5745 5743 5742 5739 5734 5730 5727 5724 5719 5717 5716 5714 5714 5713 5713 5711 5709 5707 5704 5702 5700 5698 5695 5693 5690 5687 5684 5682 5679 5674 5670 5664 5660 5657 5653 5648 5643 5637 5630 5622 5617 5612 5608
5730 5729 5729 5727 5722 5718 5715 5711 5707 5704 5702 5702 5700 5700 5698 5696 5695 5693 5692 5689 5687 5685 5682 5679 5677 5674 5671 5667 5663 5659 5655 5650 5645 5641 5636 5632 5627 5620 5613 5606 5602 5598 5594
5715 5713 5713 5713 5710 5706 5702 5700 5696 5693 5691 5689 5687 5686 5687 5688 5686 5683 5682 5679 5677 5674 5670 5666 5662 5659 5655 5652 5648 5644 5639 5634 5629 5624 5618 5614 5609 5603 5599 5594 5589 5584 5578
5701 5699 5698 5698 5696 5693 5690 5686 5684 5682 5680 5679 5677 5676 5675 5674 5673 5671 5668 5665 5663 5659 5656 5652 5648 5644 5641 5636 5632 5628 5623 5616 5610 5605 5601 5597 5592 5587 5582 5578 5574 5568 5563
5688 5685 5684 5682 5680 5677 5674 5672 5671 5669 5668 5667 5666 5665 5662 5661 5659 5656 5653 5650 5648 5644 5641 5637 5632 5627 5622 5617 5613 5607 5601 5596 5593 5587 5582 5580 5575 5569 5565 5561 5558 5553 5548
5674 5671 5669 5667 5665 5662 5660 5659 5658 5657 5656 5655 5653 5651 5649 5647 5646 5644 5641 5637 5633 5629 5624 5619 5614 5609 5603 5598 5592 5590 5583 5578 5571 5565 5562 5561 5554 5550 5548 5546 5541 5538 5533
5658 5656 5654 5652 5651 5650 5649 5648 5647 5645 5644 5642 5640 5638 5637 5634 5632 5629 5626 5622 5616 5611 5606 5601 5595 5588 5581 5579 5574 5570 5563 5560 5559 5551 5545 5541 5538 5532 5533 5530 5525 5522 5517
5645 5642 5640 5640 5639 5638 5635 5634 5632 5630 5629 5628 5626 5623 5621 5618 5614 5610 5606 5602 5597 5591 5585 5579 5573 5566 5560 5555 5553 5551 5546 5540 5537 5533 5528 5527 5521 5516 5513 5512 5509 5506 5502
5633 5631 5627 5625 5624 5624 5623 5621 5619 5617 5614 5612 5610 5607 5604 5601 5596 5590 5583 5577 5570 5564 5558 5551 5545 5540 5535 5530 5527 5524 5520 5516 5513 5512 5509 5505 5503 5498 5496 5495 5492 5491 5487
5620 5617 5614 5613 5612 5610 5608 5606 5604 5602 5599 5596 5592 5588 5583 5578 5572 5566 5559 5552 5546 5540 5534 5525 5518 5512 5510 5506 5502 5498 5496 5492 5489 5487 5484 5482 5481 5479 5478 5478 5477 5476 5473
5607 5605 5603 5600 5598 5597 5593 5591 5588 5585 5580 5576 5572 5567 5560 5554 5546 5538 5532 5525 5518 5511 5504 5495 5488 5484 5482 5481 5478 5471 5470 5468 5466 5465 5464 5463 5463 5463 5462 5462 5462 5461 5460
5594 5592 5590 5587 5584 5581 5578 5574 5569 5564 5559 5555 5548 5541 5534 5525 5519 5509 5503 5494 5485 5478 5472 5466 5461 5460 5459 5458 5457 5456 5454 5451 5451 5450 5448 5446 5447 5447 5448 5448 5449 5446 5448
5580 5578 5576 5571 5567 5563 5559 5554 5550 5544 5538 5531 5524 5515 5507 5499 5490 5480 5470 5462 5455 5449 5445 5442 5441 5442 5441 5441 5440 5437 5435 5434 5433 5432 5432 5432 5432 5432 5433 5436 5434 5436 5435